COSMOS 2414 [+]

Last updated on July 6, 2021, 3:40 p.m. UTC

1 28521U 05002A   21187.14221816  .00000054  00000-0  31991-4 0  9995
2 28521  82.9499 330.0348 0041798  81.0235 279.5656 13.87635091833524
UTC
Height (km)
Latitude
Longitude
Inclination
Orbital Period
UTC large
Height (km)
Speed (km/s)
/
Latitude / Longitude
Inclination (degrees)
Orbital Period (minutes)
Azimuth
Elevation
Range (km)
Doppler Factor
iOS Compass Heading
iOS Angle